Home   Weather   Muscat   Past weeks

Flag for Oman Past Weather in Muscat, Oman — Yesterday and Last 2 Weeks

Now
90 °F

Clear.


Feels Like: 103 °F
Forecast: 82 / 89 °F
Wind: 12 mph from North

Location: International Airport

Current Time: Apr 28, 2017 at 10:38:05 am

Latest Report: Apr 28, 2017 at 9:50 am


Visibility: 6 mi

Pressure: 29.83 "Hg

Humidity: 67%

Dew Point: 77 °F

Location of MuscatLocation

Past Weather in Muscat — Graph

°F

Muscat Temperature Yesterday

Maximum temperature yesterday: 100 °F (at 10:50 am)
Minimum temperature yesterday: 81 °F (at 2:50 am)
Average temperature yesterday: 90 °F

High & Low Weather Summary for the Past Weeks

 TemperatureHumidityPressure
High104 °F (Apr 19, 9:50 am)89% (Apr 28, 4:50 am)29.89 "Hg (Apr 28, 4:50 am)
Low79 °F (Apr 14, 2:50 am)8% (Apr 14, 9:50 am)29.62 "Hg (Apr 21, 2:50 pm)
Average91 °F35%29.72 "Hg
* Reported Apr 13 8:50 am — Apr 28 8:50 am, Muscat, Weather by CustomWeather, © 2017

Note: Actual official high and low records may vary slightly from our data, if they occured in-between our weather recording intervals... More about our weather records

Advertising

Muscat Weather History for the Previous 24 Hours

Scroll right to see more
 ConditionsComfort  
Time TempWeatherWind HumidityBarometerVisibility
8:50 am
Fri, Apr 28
99 °FClear.3 mph29%29.83 "Hg6 mi
7:50 am91 °FClear.3 mph49%29.80 "Hg6 mi
6:50 am86 °FClear.5 mph84%29.80 "Hg6 mi
5:50 am84 °FClear.5 mph89%29.77 "Hg5 mi
4:50 am84 °FClear.12 mph89%29.77 "Hg10 mi
3:50 am95 °FClear.18 mph28%29.74 "Hg10 mi
2:50 am95 °FClear.23 mph28%29.71 "Hg10 mi
1:50 am97 °FClear.17 mph32%29.74 "Hg10 mi
12:50 am90 °FClear.2 mph29%29.74 "Hg10 mi
11:50 pm
Thu, Apr 27
90 °FClear.2 mph31%29.77 "Hg10 mi
10:50 pm88 °FClear.2 mph55%29.77 "Hg10 mi
9:50 pm90 °FClear.2 mph49%29.77 "Hg10 mi
8:50 pm90 °FClear.2 mph55%29.77 "Hg10 mi
7:50 pm91 °FClear.2 mph41%29.74 "Hg10 mi
6:50 pm93 °FClear.5 mph39%29.74 "Hg10 mi
5:50 pm91 °FSunny.9 mph44%29.74 "Hg10 mi
4:50 pm95 °FSunny.9 mph32%29.71 "Hg10 mi
3:50 pm95 °FSunny.10 mph23%29.74 "Hg10 mi
2:50 pm95 °FSunny.9 mph26%29.74 "Hg10 mi
1:50 pm91 °FPassing clouds.9 mph56%29.74 "HgN/A
12:50 pm93 °FPassing clouds.12 mph41%29.77 "HgN/A
11:50 am99 °FClear.13 mph17%29.77 "Hg6 mi
10:50 am100 °FClear.13 mph11%29.77 "Hg6 mi
Weather by CustomWeather, © 2017

See weather overviewHow to use our weather pages